Tracking 19576 objects as of 17-Feb-2019
HD Live streaming from Space Station
objects crossing your sky now

ARIANE 44L DEB

Track ARIANE 44L DEB now!


NORAD ID: 24722
Int'l Code: 1991-003E
Perigee: 506.0 km
Apogee: 27,451.3 km
Inclination: 7.1 °
Period: 481.5 minutes
Semi major axis: 20349 km
RCS: 0.1777 m2 (medium)
Launch date: January 15, 1991
Source: France (FR)
Launch site: FRENCH GUIANA (FRGUI)

Note: This is SATELLITE DEBRIS
aabbcc
Your satellite tracking list
Your tracking list is empty




NASA's NSSDC Master Catalog

Two Line Element Set (TLE):
1 24722U 91003E   19047.02088523  .00000278  00000-0  10809-2 0  9996
2 24722   7.1058 118.5076 6620589 338.4255   3.4421  2.99066569237383
Source of the keplerian elements: AFSPC